User: anonymous   Login
Location: Unspecified
(0.0000°N, 0.0000°E)
Time: 21:20:05
(UTC+00:00)
Language:

STARLINK-33827 - Orbit

View from above orbital plane
View from above orbital plane
View from above satellite
View from above satellite

Ground track
Ground track

The orbit is defined by the following mean orbital elements,

1 63798U          26145.53083560 +.00000000 +00000-0 +54275-3 0 00000
2 63798  43.0001 338.6052 0000922 310.4745  49.6026 15.27597688    02
Epoch (UTC): 25 May 2026 12:44:24
Eccentricity: 0.0000922
inclination: 43.0001°
perigee height: 482 km
apogee height: 484 km
right ascension of ascending node: 338.6052°
argument of perigee: 310.4745°
revolutions per day: 15.27597688
mean anomaly at epoch: 49.6026°

The dashed part of the orbit path shows where the satellite is in the earth's shadow,  

DLR